Temp
10 10 10 11 10 10 10 10 10 10 10 10 10 10 10 9 9 9 9 9 9 8 8 8 8 7 7 6 6 6 6 6
10 10 10 10 10 10 10 10 10 10 10 10 10 10 9 9 9 9 9 9 9 8 8 8 8 8 7 7 6 6 6 6
9 9 9 9 9 10 10 10 9 10 10 10 9 9 9 9 9 9 9 9 9 8 8 8 8 8 7 7 7 6 6 6
9 9 9 9 9 9 9 9 9 9 9 9 9 9 9 9 9 9 9 8 9 8 8 8 8 8 8 7 7 6 6 6
9 9 9 9 9 9 9 9 9 9 9 8 8 9 9 9 9 9 9 8 8 8 8 8 8 8 7 7 7 7 6 6
8 8 9 9 9 9 9 9 9 8 8 8 8 8 8 8 9 8 8 8 8 8 8 8 8 8 7 7 7 7 7 6
7 8 7 8 8 8 8 8 8 8 8 7 7 7 8 8 8 8 8 8 8 8 8 8 8 8 8 7 7 7 7 7
6 7 8 8 8 8 8 7 7 8 7 7 7 7 7 7 7 7 7 7 7 7 7 7 7 7 7 7 7 7 7 7
6 6 6 6 7 7 7 7 6 6 7 7 7 6 6 7 6 7 7 7 7 6 7 7 7 7 7 7 7 7 7 7
6 6 6 6 6 6 6 6 6 6 5 6 6 6 7 7 7 7 7 7 6 6 5 6 7 7 7 7 7 7 7 7
5 6 6 5 5 5 5 5 5 5 5 5 5 5 5 6 6 7 6 6 6 5 4 5 6 6 6 6 6 7 7 7
5 5 5 5 5 5 5 4 4 4 5 5 5 5 5 5 5 5 6 6 5 5 4 4 4 4 4 5 5 5 6 6
4 5 5 5 5 5 4 4 4 4 4 5 5 5 5 5 5 5 5 5 5 5 5 5 4 4 3 3 3 4 4 4
3 4 4 4 4 4 4 4 4 4 4 4 5 5 5 5 5 5 5 5 6 6 5 5 5 5 5 4 4 3 2 2
2 3 3 4 4 4 4 4 4 4 4 4 4 4 5 5 5 5 6 6 6 6 6 5 5 5 5 4 4 4 4 3
1 2 3 3 3 4 4 3 3 3 4 4 4 4 4 5 5 6 6 6 6 6 5 5 5 5 5 4 4 4 3 3
0 2 2 3 3 3 3 3 3 3 3 4 4 4 4 5 5 6 6 6 6 6 6 6 5 5 4 4 4 4 3 3
-1 1 2 2 3 2 3 2 3 3 3 4 4 4 4 4 5 5 6 6 6 6 6 6 6 5 4 3 3 3 4 3
-1 1 1 1 2 2 2 2 3 3 3 4 4 4 4 4 5 5 5 5 6 6 6 5 5 5 5 4 3 3 2 2
-1 -1 -0 1 1 1 2 2 3 3 4 4 4 4 5 4 4 5 4 4 5 5 5 5 5 5 5 3 2 2 2 2
Height
3131 3131 3131 3131 3132 3133 3134 3135 3136 3138 3139 3140 3142 3143 3144 3145 3146 3147 3146 3146 3147 3146 3146 3146 3146 3146 3145 3144 3144 3146 3147 3148
3127 3127 3127 3127 3127 3128 3129 3131 3133 3134 3135 3137 3138 3139 3140 3142 3143 3144 3144 3144 3145 3145 3145 3145 3145 3145 3143 3142 3142 3144 3146 3146
3123 3122 3122 3122 3122 3122 3124 3125 3127 3128 3130 3132 3133 3135 3137 3138 3139 3141 3141 3142 3142 3142 3142 3143 3143 3143 3142 3141 3140 3140 3143 3144
3117 3117 3116 3115 3116 3116 3117 3118 3120 3122 3124 3126 3128 3131 3132 3133 3135 3136 3138 3138 3139 3139 3139 3140 3140 3140 3140 3139 3138 3137 3139 3141
3110 3110 3111 3110 3109 3110 3111 3113 3114 3116 3118 3120 3123 3125 3127 3128 3129 3131 3133 3134 3135 3136 3136 3137 3137 3137 3137 3137 3136 3135 3135 3137
3103 3102 3103 3104 3104 3104 3105 3106 3108 3110 3112 3115 3116 3118 3120 3123 3124 3125 3127 3129 3130 3131 3132 3132 3133 3134 3134 3134 3133 3132 3132 3134
3098 3096 3096 3099 3100 3099 3099 3099 3100 3103 3105 3107 3109 3111 3114 3116 3118 3119 3121 3122 3124 3125 3126 3128 3128 3128 3129 3129 3130 3129 3129 3130
3089 3091 3093 3092 3093 3095 3095 3095 3095 3096 3098 3101 3102 3104 3105 3107 3109 3111 3113 3114 3116 3118 3120 3121 3122 3123 3124 3124 3125 3125 3124 3125
3083 3083 3086 3088 3088 3087 3088 3090 3092 3091 3092 3093 3094 3097 3098 3099 3101 3102 3104 3105 3107 3109 3112 3113 3114 3116 3117 3118 3119 3120 3119 3119
3076 3077 3079 3082 3082 3081 3082 3084 3086 3086 3086 3087 3088 3090 3090 3090 3092 3094 3096 3096 3097 3100 3102 3102 3106 3107 3109 3112 3113 3112 3113 3113
3066 3070 3073 3074 3076 3077 3078 3077 3076 3078 3080 3079 3080 3082 3083 3084 3085 3085 3087 3085 3087 3086 3090 3096 3095 3096 3100 3103 3105 3105 3106 3107
3059 3063 3066 3068 3069 3071 3073 3072 3070 3069 3070 3072 3072 3072 3074 3075 3076 3076 3078 3077 3079 3071 3081 3083 3082 3087 3091 3093 3097 3098 3098 3100
3051 3056 3059 3061 3062 3064 3066 3066 3063 3062 3062 3063 3063 3065 3066 3067 3068 3069 3070 3070 3071 3072 3074 3074 3072 3064 3079 3083 3084 3088 3089 3092
3047 3049 3053 3055 3057 3058 3059 3059 3057 3055 3055 3054 3053 3055 3056 3057 3059 3060 3061 3061 3062 3064 3065 3067 3068 3071 3073 3076 3073 3074 3076 3080
3043 3044 3046 3048 3051 3052 3052 3050 3049 3048 3048 3047 3046 3046 3046 3047 3048 3049 3051 3051 3052 3055 3057 3059 3060 3063 3065 3067 3065 3065 3067 3069
3041 3040 3041 3042 3044 3045 3045 3043 3042 3041 3040 3040 3039 3038 3037 3036 3036 3037 3039 3040 3041 3044 3046 3047 3050 3051 3053 3056 3056 3058 3058 3060
3034 3035 3036 3037 3037 3037 3038 3036 3035 3034 3032 3032 3032 3031 3029 3027 3025 3026 3027 3028 3030 3032 3033 3035 3037 3040 3042 3044 3045 3047 3049 3050
3027 3028 3029 3030 3028 3029 3030 3030 3027 3027 3026 3024 3023 3022 3021 3020 3017 3015 3015 3017 3018 3020 3021 3022 3023 3025 3029 3032 3031 3034 3035 3040
3023 3023 3023 3022 3023 3023 3023 3022 3021 3018 3017 3016 3015 3014 3013 3011 3009 3007 3007 3006 3007 3008 3008 3009 3010 3011 3014 3018 3022 3022 3026 3029
3019 3018 3017 3018 3017 3017 3015 3012 3010 3009 3008 3007 3006 3004 3004 3003 3000 2999 2998 2998 2998 2997 2997 2998 2998 2998 3000 3004 3008 3011 3014 3016
Wind_Speed
22 20 19 24 26 26 31 33 32 32 31 29 28 26 24 21 17 15 15 15 14 11 11 10 10 10 12 14 15 14 11 10
30 28 23 22 27 28 28 32 34 34 34 32 31 30 27 24 21 18 17 16 16 14 13 12 12 11 12 14 15 15 12 12
32 32 31 28 26 29 30 29 34 36 36 35 35 33 30 28 25 22 19 19 18 17 16 14 13 12 13 14 15 14 13 13
33 34 35 32 32 31 30 32 32 36 38 37 36 34 33 31 28 25 23 21 20 20 19 18 16 14 15 15 16 16 15 13
36 32 32 30 28 31 32 32 34 35 38 38 36 36 35 34 32 30 27 25 23 21 20 20 17 16 16 17 18 18 17 16
39 38 36 35 32 28 30 32 34 34 37 38 37 37 37 36 35 33 31 29 26 24 23 21 21 20 19 18 19 20 19 18
40 43 42 39 33 30 27 27 32 37 37 38 38 39 38 38 37 36 34 33 31 29 27 25 24 24 23 22 21 20 21 20
43 43 41 37 35 34 33 27 28 34 38 38 40 40 40 40 40 39 38 37 34 33 31 29 27 27 27 26 24 22 22 22
43 40 36 32 33 36 33 29 28 27 34 40 39 39 39 41 42 42 41 39 38 37 34 33 33 32 31 30 28 27 25 24
43 44 39 34 33 38 35 31 31 32 32 36 39 39 41 43 44 44 42 43 42 40 38 34 37 36 35 34 33 31 30 28
44 43 40 33 34 35 35 35 35 33 35 37 36 38 42 43 43 45 45 46 46 53 43 46 43 40 37 37 36 36 35 33
46 43 36 33 36 35 36 39 42 43 41 38 39 38 40 42 43 44 43 45 43 36 41 56 59 44 37 37 38 38 38 37
46 41 36 36 37 38 37 39 38 41 42 40 40 41 42 41 42 44 44 43 43 40 40 38 42 41 43 52 45 39 39 39
43 40 39 39 38 38 37 38 34 37 39 41 40 40 42 45 46 46 46 46 46 45 43 43 44 41 41 42 44 46 52 52
38 38 38 38 37 35 34 38 34 31 35 37 38 40 41 42 44 46 47 49 50 49 49 47 47 48 46 44 46 47 45 33
34 33 31 31 28 28 37 36 31 30 29 31 33 37 40 42 43 45 46 47 49 49 50 52 51 53 52 49 50 48 50 48
27 25 25 25 25 23 29 32 31 29 29 30 31 34 36 39 42 44 45 46 48 49 49 51 53 53 54 52 54 53 50 47
33 25 23 23 24 28 35 36 34 33 33 32 31 33 33 35 39 41 43 44 45 47 49 50 51 51 51 53 55 53 53 51
20 23 19 25 27 28 32 33 31 30 34 33 32 32 33 34 36 37 40 41 43 45 46 47 49 50 49 49 52 53 51 49
16 16 17 22 27 29 29 30 31 31 33 33 31 32 33 33 35 37 37 38 39 40 40 40 41 42 44 45 49 51 51 52
Wind_Direction
287 279 267 257 252 249 244 239 238 238 239 241 242 243 242 244 251 257 259 262 264 268 274 277 275 271 266 262 264 265 256 245
292 290 279 274 260 252 248 245 242 239 240 241 243 244 243 243 245 250 255 259 262 264 264 269 276 280 276 268 266 268 264 253
287 287 283 277 265 258 252 246 243 241 240 240 242 244 246 247 245 248 251 255 260 262 263 263 265 273 275 276 272 269 269 260
288 289 285 281 271 260 253 245 242 241 240 241 243 245 247 248 245 244 246 248 253 257 258 260 262 263 269 270 272 270 268 263
286 286 282 281 276 258 254 250 244 242 241 240 241 243 245 247 247 246 246 248 250 255 260 263 263 257 258 264 267 271 270 272
281 280 280 281 274 264 250 252 246 240 241 240 241 242 244 246 248 248 246 248 248 248 252 255 257 257 258 260 265 269 270 267
271 276 282 284 276 265 256 256 249 239 235 236 239 241 243 246 248 249 249 249 249 248 247 250 251 254 258 260 260 263 269 272
272 275 277 280 272 265 264 270 261 244 238 237 238 238 239 242 245 246 248 249 249 250 249 247 247 247 250 256 258 259 263 269
271 275 276 274 269 267 267 268 265 256 245 241 239 239 241 243 245 246 247 248 248 248 248 248 244 244 246 250 256 262 262 262
264 270 272 276 270 263 267 268 269 266 257 249 244 243 245 245 247 248 249 250 251 249 247 252 249 245 244 246 249 253 258 262
261 264 269 272 267 265 270 275 276 267 263 258 250 246 246 250 250 251 252 252 249 243 242 248 253 247 245 246 247 247 249 253
256 258 261 262 261 262 270 276 276 274 270 261 255 252 249 248 249 252 252 254 259 259 244 244 241 245 247 248 250 249 249 248
242 246 250 250 256 263 270 276 279 269 268 263 255 254 254 254 252 253 254 256 258 261 260 261 252 251 248 243 245 252 251 251
235 241 243 249 255 263 272 284 275 267 263 263 261 257 255 256 256 256 257 258 259 261 260 262 262 261 258 259 261 256 252 245
231 236 242 248 255 262 282 294 275 263 259 260 261 261 260 259 258 257 257 258 258 258 260 259 260 260 257 255 259 261 266 267
241 241 246 253 259 271 283 289 278 276 269 264 264 264 262 262 262 262 261 258 259 258 258 259 258 258 260 257 257 259 260 265
244 237 245 248 261 275 285 279 279 281 279 275 270 268 269 267 264 263 263 263 263 263 261 260 259 257 255 257 258 256 256 260
226 225 243 249 263 272 279 281 280 284 282 280 278 273 269 269 267 266 266 264 263 263 262 263 263 262 258 252 254 257 258 258
222 234 246 262 275 275 273 281 284 287 290 285 279 276 274 271 269 265 265 267 267 266 265 265 266 266 262 256 252 254 258 256
239 262 271 270 268 272 282 289 293 294 293 291 285 278 274 272 268 267 266 268 268 268 269 268 266 266 266 258 252 252 253 259